Weather History for KBID - February, 2013

Change the Weather History Date:

Monday, February 4, 2013

  Actual Average Record
Temperature  
Mean Temperature 28 °F -  
Max Temperature 30 °F 36 °F 55 °F (1991)
Min Temperature 26 °F 23 °F 6 °F (1978)
Degree Days  
Heating Degree Days 37    
Moisture  
Dew Point 10 °F    
Average Humidity 47    
Maximum Humidity 64    
Minimum Humidity 40    
Precipitation  
Precipitation 0.00 in - - ()
Sea Level Pressure  
Sea Level Pressure 29.84 in    
Wind  
Wind Speed 13 mph (WNW)    
Max Wind Speed 21 mph    
Max Gust Speed 30 mph    
Visibility 10 miles    
Events      
Averages and records for this station are not official NWS values.
T = Trace of Precipitation, MM = Missing Value Source: NWS Daily Summary

Daily Weather History Graph

Daily Weather History Graph

Search for Another Location

Airport or City:

Trip Planner

Search our weather history database for the weather conditions in past years. The results will help you decide how hot, cold, wet, or windy it might be!

Date:

Astronomy

Feb. 04, 2013 Rise Set
Actual Time 6:53 AM EST 5:07 PM EST
Civil Twilight 6:25 AM EST 5:36 PM EST
Nautical Twilight 5:52 AM EST 6:08 PM EST
Astronomical Twilight 5:20 AM EST 6:41 PM EST
Moon 1:26 AM EST (2/4) 11:27 AM EST (2/4)
Length of Visible Light 11h 11m
Length of Day
10h 13m
Last Quarter, 37% of the Moon is Illuminated
Feb 4
Last Quarter
Feb 10
New
Feb 17
First Quarter
Feb 25
Full
Mar 4
Last Quarter

Hourly Weather History & Observations

Time (EST) Temp. Windchill Dew Point Humidity Pressure Visibility Wind Dir Wind Speed Gust Speed Precip Events Conditions
12:15 AM 28.4 °F 18.5 °F 12.2 °F 51% 29.74 in 10.0 mi WNW 11.5 mph 20.7 mph N/A   Clear
12:35 AM 28.4 °F 17.5 °F 12.2 °F 51% 29.74 in 10.0 mi WNW 13.8 mph 21.9 mph N/A   Clear
12:55 AM 28.4 °F 20.4 °F 14.0 °F 55% 29.74 in 10.0 mi WNW 8.1 mph 17.3 mph N/A   Clear
1:15 AM 28.4 °F 18.5 °F 12.2 °F 51% 29.74 in 10.0 mi WNW 11.5 mph 18.4 mph N/A   Clear
1:35 AM 28.4 °F 18.5 °F 12.2 °F 51% 29.74 in 10.0 mi NW 11.5 mph 18.4 mph N/A   Clear
1:56 AM 28.4 °F 18.0 °F 12.2 °F 51% 29.74 in 10.0 mi NW 12.7 mph 17.3 mph N/A   Clear
2:15 AM 28.4 °F 19.1 °F 12.2 °F 51% 29.74 in 10.0 mi WNW 10.4 mph 16.1 mph N/A   Clear
2:35 AM 28.4 °F 18.5 °F 12.2 °F 51% 29.74 in 10.0 mi WNW 11.5 mph 17.3 mph N/A   Clear
2:55 AM 26.6 °F 16.2 °F 14.0 °F 59% 29.74 in 10.0 mi NW 11.5 mph 16.1 mph N/A   Clear
3:15 AM 26.6 °F 18.2 °F 14.0 °F 59% 29.74 in 10.0 mi NW 8.1 mph - N/A   Clear
3:35 AM 26.6 °F 17.5 °F 14.0 °F 59% 29.74 in 10.0 mi NW 9.2 mph - N/A   Clear
4:15 AM 26.6 °F 19.1 °F 15.8 °F 64% 29.74 in 10.0 mi NW 6.9 mph - N/A   Partly Cloudy
5:55 AM 26.6 °F 18.2 °F 15.8 °F 64% 29.78 in 10.0 mi NW 8.1 mph 16.1 mph N/A   Scattered Clouds
6:15 AM 26.6 °F 16.8 °F 15.8 °F 64% 29.78 in 10.0 mi NW 10.4 mph 20.7 mph N/A   Mostly Cloudy
6:35 AM 26.6 °F 14.7 °F 14.0 °F 59% 29.79 in 10.0 mi NW 15.0 mph 21.9 mph N/A   Scattered Clouds
7:15 AM 26.6 °F 13.4 °F 12.2 °F 55% 29.81 in 10.0 mi NW 18.4 mph 27.6 mph N/A   Overcast
7:35 AM 26.6 °F 14.3 °F 12.2 °F 55% 29.82 in 10.0 mi NW 16.1 mph 26.5 mph N/A   Overcast
7:55 AM 26.6 °F 16.2 °F 12.2 °F 55% 29.83 in 10.0 mi NW 11.5 mph 28.8 mph N/A   Overcast
8:35 AM 26.6 °F 13.8 °F 10.4 °F 51% 29.84 in 10.0 mi WNW 17.3 mph 29.9 mph N/A   Partly Cloudy
8:55 AM 26.6 °F 13.8 °F 10.4 °F 51% 29.84 in 10.0 mi WNW 17.3 mph 24.2 mph N/A   Clear
9:15 AM 28.4 °F 15.8 °F 12.2 °F 51% 29.85 in 10.0 mi WNW 18.4 mph 25.3 mph N/A   Scattered Clouds
9:35 AM 26.6 °F 15.2 °F 12.2 °F 55% 29.86 in 10.0 mi WNW 13.8 mph 23.0 mph N/A   Scattered Clouds
9:55 AM 28.4 °F 18.5 °F 12.2 °F 51% 29.86 in 10.0 mi WNW 11.5 mph 23.0 mph N/A   Scattered Clouds
10:15 AM 28.4 °F 17.0 °F 10.4 °F 47% 29.86 in 10.0 mi WNW 15.0 mph 21.9 mph N/A   Scattered Clouds
10:35 AM 28.4 °F 17.5 °F 10.4 °F 47% 29.86 in 10.0 mi WNW 13.8 mph 24.2 mph N/A   Mostly Cloudy
10:55 AM 30.2 °F 18.5 °F 10.4 °F 44% 29.85 in 10.0 mi WNW 17.3 mph 26.5 mph N/A   Scattered Clouds
11:15 AM 30.2 °F 19.8 °F 10.4 °F 44% 29.85 in 10.0 mi WNW 13.8 mph 21.9 mph N/A   Scattered Clouds
11:35 AM 30.2 °F 18.9 °F 10.4 °F 44% 29.85 in 10.0 mi WNW 16.1 mph 25.3 mph N/A   Scattered Clouds
11:55 AM 30.2 °F 19.3 °F 8.6 °F 40% 29.84 in 10.0 mi WNW 15.0 mph 23.0 mph N/A   Scattered Clouds
12:15 PM 28.4 °F 18.5 °F 8.6 °F 43% 29.84 in 10.0 mi WNW 11.5 mph 25.3 mph N/A   Scattered Clouds
12:35 PM 30.2 °F 17.8 °F 10.4 °F 44% 29.84 in 10.0 mi West 19.6 mph 24.2 mph N/A   Mostly Cloudy
12:55 PM 30.2 °F 18.1 °F 10.4 °F 44% 29.83 in 10.0 mi West 18.4 mph 27.6 mph N/A   Mostly Cloudy
1:15 PM 30.2 °F 18.5 °F 8.6 °F 40% 29.83 in 10.0 mi West 17.3 mph 25.3 mph N/A   Scattered Clouds
1:35 PM 30.2 °F 18.9 °F 10.4 °F 44% 29.83 in 10.0 mi West 16.1 mph 24.2 mph N/A   Mostly Cloudy
1:55 PM 30.2 °F 18.9 °F 8.6 °F 40% 29.84 in 10.0 mi West 16.1 mph 23.0 mph N/A   Mostly Cloudy
2:15 PM 30.2 °F 18.9 °F 10.4 °F 44% 29.84 in 10.0 mi West 16.1 mph 25.3 mph N/A   Mostly Cloudy
2:55 PM 30.2 °F 19.3 °F 10.4 °F 44% 29.85 in 10.0 mi West 15.0 mph 29.9 mph N/A   Overcast
3:15 PM 30.2 °F 18.1 °F 10.4 °F 44% 29.84 in 10.0 mi West 18.4 mph 27.6 mph N/A   Overcast
3:35 PM 30.2 °F 18.9 °F 10.4 °F 44% 29.84 in 10.0 mi West 16.1 mph 29.9 mph N/A   Overcast
3:55 PM 30.2 °F 18.9 °F 8.6 °F 40% 29.84 in 10.0 mi West 16.1 mph 28.8 mph N/A   Mostly Cloudy
4:15 PM 30.2 °F 19.3 °F 8.6 °F 40% 29.84 in 10.0 mi West 15.0 mph 25.3 mph N/A   Mostly Cloudy
4:35 PM 30.2 °F 18.9 °F 10.4 °F 44% 29.84 in 10.0 mi West 16.1 mph 23.0 mph N/A   Mostly Cloudy
4:55 PM 28.4 °F 17.0 °F 8.6 °F 43% 29.85 in 10.0 mi West 15.0 mph 24.2 mph N/A   Mostly Cloudy
5:15 PM 28.4 °F 17.0 °F 8.6 °F 43% 29.86 in 10.0 mi West 15.0 mph 23.0 mph N/A   Mostly Cloudy
5:55 PM 30.2 °F 18.1 °F 8.6 °F 40% 29.87 in 10.0 mi West 18.4 mph 27.6 mph N/A   Mostly Cloudy
6:15 PM 30.2 °F 18.9 °F 8.6 °F 40% 29.87 in 10.0 mi West 16.1 mph 25.3 mph N/A   Partly Cloudy
6:35 PM 30.2 °F 18.5 °F 8.6 °F 40% 29.88 in 10.0 mi West 17.3 mph 25.3 mph N/A   Clear
7:15 PM 30.2 °F 19.3 °F 8.6 °F 40% 29.89 in 10.0 mi West 15.0 mph 26.5 mph N/A   Scattered Clouds
7:35 PM 30.2 °F 19.3 °F 8.6 °F 40% 29.90 in 10.0 mi West 15.0 mph 24.2 mph N/A   Partly Cloudy
7:55 PM 30.2 °F 18.1 °F 8.6 °F 40% 29.91 in 10.0 mi WNW 18.4 mph 28.8 mph N/A   Clear
8:15 PM 30.2 °F 18.5 °F 8.6 °F 40% 29.91 in 10.0 mi West 17.3 mph 25.3 mph N/A   Clear
8:35 PM 30.2 °F 19.3 °F 8.6 °F 40% 29.92 in 10.0 mi West 15.0 mph 26.5 mph N/A   Clear
8:55 PM 30.2 °F 18.5 °F 8.6 °F 40% 29.92 in 10.0 mi WNW 17.3 mph 27.6 mph N/A   Clear
9:15 PM 30.2 °F 17.4 °F 8.6 °F 40% 29.93 in 10.0 mi WNW 20.7 mph 28.8 mph N/A   Clear
9:35 PM 28.4 °F 18.0 °F 6.8 °F 40% 29.94 in 10.0 mi WNW 12.7 mph 25.3 mph N/A   Clear
9:55 PM 28.4 °F 17.5 °F 6.8 °F 40% 29.94 in 10.0 mi WNW 13.8 mph 23.0 mph N/A   Clear
10:15 PM 28.4 °F 17.0 °F 6.8 °F 40% 29.94 in 10.0 mi WNW 15.0 mph 23.0 mph N/A   Clear
10:55 PM 28.4 °F 18.0 °F 6.8 °F 40% 29.94 in 10.0 mi West 12.7 mph 20.7 mph N/A   Mostly Cloudy
11:15 PM 28.4 °F 18.0 °F 8.6 °F 43% 29.94 in 10.0 mi WNW 12.7 mph 21.9 mph N/A   Overcast
11:35 PM 28.4 °F 18.0 °F 6.8 °F 40% 29.95 in 10.0 mi WNW 12.7 mph 19.6 mph N/A   Overcast
11:55 PM 28.4 °F 19.1 °F 6.8 °F 40% 29.96 in 10.0 mi WNW 10.4 mph 18.4 mph N/A   Overcast